| time (UTC) | temp F | wind direction | speed knots | gust knots | rain 1hr in | rain 24hr in | rain mn in | humidity % | barometer mb |
| 20260831133302 | 71 | 271 | 0.0 | 0.0 | 0.01 | 0.02 | 0.01 | 91 | 1015.4 |
| 20260831132801 | 71 | 271 | 0.0 | 0.0 | 0.00 | 0.01 | 0.00 | 91 | 1015.4 |
| 20260831132306 | 71 | 271 | 0.0 | 0.0 | 0.00 | 0.01 | 0.00 | 91 | 1015.4 |
| 20260831131801 | 71 | 271 | 0.0 | 0.0 | 0.00 | 0.01 | 0.00 | 91 | 1015.2 |
| 20260831131302 | 71 | 271 | 0.0 | 0.0 | 0.00 | 0.01 | 0.00 | 90 | 1015.2 |
| 20260831130802 | 70 | 271 | 0.0 | 0.0 | 0.00 | 0.01 | 0.00 | 90 | 1015.0 |
| 20260831130305 | 70 | 271 | 0.0 | 0.9 | 0.00 | 0.01 | 0.00 | 90 | 1015.0 |
| 20260831125803 | 70 | 271 | 0.0 | 0.9 | 0.00 | 0.06 | 0.00 | 90 | 1014.9 |
| 20260831121802 | 70 | 271 | 0.9 | 2.6 | 0.00 | 0.06 | 0.00 | 91 | 1014.1 |
| 20260831121302 | 69 | 234 | 0.9 | 3.5 | 0.00 | 0.06 | 0.00 | 91 | 1013.9 |
| 20260831120802 | 69 | 186 | 0.9 | 3.5 | 0.00 | 0.06 | 0.00 | 91 | 1013.8 |
| 20260831120304 | 69 | 210 | 0.9 | 1.7 | 0.00 | 0.06 | 0.00 | 90 | 1013.9 |
| 20260831115803 | 69 | 192 | 0.0 | 0.9 | 0.00 | 0.24 | 0.00 | 90 | 1014.1 |
| 20260831115305 | 69 | 192 | 0.0 | 0.9 | 0.00 | 0.24 | 0.00 | 90 | 1014.2 |
| 20260831114802 | 69 | 192 | 0.0 | 0.9 | 0.00 | 0.24 | 0.00 | 91 | 1014.1 |
| 20260831114302 | 69 | 203 | 0.0 | 0.9 | 0.00 | 0.24 | 0.00 | 90 | 1014.1 |
| 20260831113803 | 69 | 204 | 0.0 | 0.9 | 0.00 | 0.24 | 0.00 | 90 | 1014.1 |
| 20260831113301 | 69 | 220 | 0.0 | 1.7 | 0.00 | 0.24 | 0.00 | 90 | 1014.0 |
| 20260831112801 | 69 | 41 | 0.0 | 0.9 | 0.00 | 0.24 | 0.00 | 90 | 1013.9 |
| 20260831112306 | 69 | 159 | 0.0 | 1.7 | 0.00 | 0.24 | 0.00 | 90 | 1013.8 |
| 20260831111802 | 69 | 159 | 0.9 | 1.7 | 0.00 | 0.24 | 0.00 | 90 | 1013.8 |
| 20260831111302 | 69 | 221 | 0.0 | 0.9 | 0.00 | 0.24 | 0.00 | 90 | 1013.8 |
| 20260831110802 | 69 | 221 | 0.0 | 0.9 | 0.00 | 0.24 | 0.00 | 90 | 1013.8 |
| 20260831110302 | 69 | 221 | 0.0 | 0.9 | 0.00 | 0.42 | 0.00 | 90 | 1013.8 |
| 20260831105801 | 69 | 221 | 0.0 | 2.6 | 0.00 | 0.42 | 0.00 | 90 | 1013.7 |
| 20260831105305 | 68 | 157 | 0.0 | 2.6 | 0.00 | 0.42 | 0.00 | 90 | 1013.7 |
| 20260831104801 | 68 | 163 | 0.9 | 2.6 | 0.00 | 0.42 | 0.00 | 90 | 1013.8 |
| 20260831104302 | 68 | 213 | 0.0 | 0.9 | 0.00 | 0.42 | 0.00 | 90 | 1013.8 |
| 20260831103801 | 68 | 336 | 0.0 | 0.9 | 0.00 | 0.42 | 0.00 | 90 | 1013.9 |
| 20260831103302 | 69 | 336 | 0.0 | 0.0 | 0.00 | 0.42 | 0.00 | 90 | 1013.9 |
| 20260831102802 | 69 | 336 | 0.0 | 0.0 | 0.00 | 0.42 | 0.00 | 90 | 1014.0 |
| 20260831102305 | 69 | 336 | 0.0 | 0.0 | 0.00 | 0.42 | 0.00 | 90 | 1014.1 |
| 20260831101802 | 69 | 336 | 0.0 | 0.0 | 0.00 | 0.42 | 0.00 | 90 | 1014.1 |
| 20260831101302 | 69 | 336 | 0.0 | 0.0 | 0.00 | 0.42 | 0.00 | 90 | 1014.2 |
| 20260831100802 | 69 | 336 | 0.0 | 0.0 | 0.00 | 0.42 | 0.00 | 90 | 1014.2 |
| 20260831100301 | 69 | 336 | 0.0 | 0.0 | 0.00 | 0.42 | 0.00 | 90 | 1014.3 |
| 20260831095802 | 69 | 336 | 0.0 | 0.0 | 0.00 | 0.42 | 0.00 | 90 | 1014.2 |
| 20260831095301 | 69 | 336 | 0.0 | 0.0 | 0.00 | 0.42 | 0.00 | 90 | 1014.3 |
| 20260831094801 | 69 | 336 | 0.0 | 0.0 | 0.00 | 0.42 | 0.00 | 90 | 1014.3 |
| 20260831094302 | 69 | 336 | 0.0 | 0.0 | 0.00 | 0.42 | 0.00 | 90 | 1014.4 |
| 20260831093801 | 69 | 336 | 0.0 | 0.0 | 0.00 | 0.42 | 0.00 | 90 | 1014.4 |
| 20260831093301 | 69 | 336 | 0.0 | 0.9 | 0.00 | 0.42 | 0.00 | 90 | 1014.4 |
| 20260831092802 | 69 | 336 | 0.0 | 0.9 | 0.00 | 0.42 | 0.00 | 90 | 1014.4 |
| 20260831092306 | 69 | 336 | 0.0 | 0.9 | 0.00 | 0.42 | 0.00 | 90 | 1014.4 |
| 20260831091556 | 69 | 347 | 0.0 | 0.9 | 0.00 | 0.42 | 0.00 | 90 | 1014.3 |
| 20260831091055 | 69 | 349 | 0.0 | 0.9 | 0.00 | 0.42 | 0.00 | 90 | 1014.3 |
| 20260831090555 | 69 | 266 | 0.0 | 0.9 | 0.00 | 0.42 | 0.00 | 90 | 1014.4 |
| 20260831090056 | 69 | 288 | 0.0 | 0.9 | 0.00 | 0.42 | 0.00 | 90 | 1014.4 |
| 20260831085556 | 69 | 276 | 0.0 | 0.9 | 0.00 | 0.42 | 0.00 | 90 | 1014.4 |
| 20260831085055 | 69 | 276 | 0.0 | 1.7 | 0.00 | 0.42 | 0.00 | 90 | 1014.3 |
| 20260831084555 | 69 | 326 | 0.0 | 1.7 | 0.00 | 0.42 | 0.00 | 90 | 1014.3 |
| 20260831084055 | 69 | 258 | 0.0 | 0.9 | 0.00 | 0.42 | 0.00 | 90 | 1014.2 |
| 20260831083555 | 69 | 258 | 0.0 | 0.9 | 0.00 | 0.42 | 0.00 | 90 | 1014.3 |
| 20260831083055 | 69 | 258 | 0.0 | 1.7 | 0.00 | 0.42 | 0.00 | 90 | 1014.3 |
| 20260831082555 | 69 | 276 | 0.9 | 1.7 | 0.00 | 0.42 | 0.00 | 90 | 1014.1 |
| 20260831082055 | 68 | 165 | 0.0 | 0.9 | 0.00 | 0.42 | 0.00 | 90 | 1014.1 |
| 20260831081556 | 69 | 159 | 0.0 | 1.7 | 0.00 | 0.42 | 0.00 | 90 | 1014.3 |
| 20260831081056 | 69 | 145 | 0.0 | 1.7 | 0.00 | 0.42 | 0.00 | 90 | 1014.1 |
| 20260831080555 | 69 | 46 | 0.0 | 0.9 | 0.00 | 0.42 | 0.00 | 90 | 1014.2 |
| 20260831080058 | 69 | 46 | 0.0 | 0.9 | 0.00 | 0.42 | 0.00 | 90 | 1014.3 |
| 20260831075556 | 68 | 61 | 0.0 | 0.9 | 0.00 | 0.42 | 0.00 | 90 | 1014.2 |
| 20260831075057 | 68 | 61 | 0.0 | 0.9 | 0.00 | 0.42 | 0.00 | 90 | 1014.2 |
| 20260831074557 | 68 | 61 | 0.0 | 0.9 | 0.00 | 0.42 | 0.00 | 90 | 1014.2 |
| 20260831074057 | 69 | 61 | 0.0 | 0.0 | 0.00 | 0.42 | 0.00 | 90 | 1014.2 |
| 20260831073556 | 69 | 61 | 0.0 | 0.0 | 0.00 | 0.42 | 0.00 | 90 | 1014.3 |
| 20260831073057 | 69 | 61 | 0.0 | 0.0 | 0.00 | 0.42 | 0.00 | 90 | 1014.3 |
| 20260831072556 | 69 | 61 | 0.0 | 0.9 | 0.00 | 0.42 | 0.00 | 90 | 1014.4 |
| 20260831072056 | 69 | 61 | 0.0 | 0.9 | 0.00 | 0.42 | 0.00 | 90 | 1014.3 |
| 20260831071556 | 69 | 55 | 0.0 | 0.0 | 0.00 | 0.42 | 0.00 | 90 | 1014.3 |
| 20260831071056 | 69 | 55 | 0.0 | 0.0 | 0.00 | 0.42 | 0.00 | 90 | 1014.4 |
| 20260831063056 | 69 | 82 | 0.0 | 1.7 | 0.00 | 0.42 | 0.00 | 90 | 1014.3 |
| 20260831062556 | 69 | 58 | 0.0 | 0.9 | 0.00 | 0.42 | 0.00 | 89 | 1014.3 |
| 20260831062056 | 69 | 55 | 0.0 | 0.9 | 0.00 | 0.42 | 0.00 | 89 | 1014.3 |
| 20260831061555 | 69 | 55 | 0.0 | 1.7 | 0.00 | 0.42 | 0.00 | 89 | 1014.2 |
| 20260831061055 | 69 | 55 | 0.0 | 1.7 | 0.00 | 0.42 | 0.00 | 89 | 1014.4 |
| 20260831060556 | 69 | 55 | 0.0 | 0.0 | 0.00 | 0.42 | 0.00 | 89 | 1014.5 |
| 20260831060056 | 69 | 55 | 0.0 | 0.0 | 0.00 | 0.42 | 0.00 | 89 | 1014.5 |
| 20260831055555 | 69 | 55 | 0.0 | 0.0 | 0.00 | 0.42 | 0.00 | 90 | 1014.6 |
| 20260831055055 | 69 | 55 | 0.0 | 0.9 | 0.00 | 0.42 | 0.00 | 90 | 1014.6 |
| 20260831054555 | 69 | 55 | 0.0 | 0.9 | 0.00 | 0.42 | 0.00 | 90 | 1014.6 |
| 20260831054055 | 69 | 55 | 0.0 | 0.9 | 0.00 | 0.42 | 0.00 | 90 | 1014.6 |
| 20260831053555 | 69 | 55 | 0.0 | 0.9 | 0.00 | 0.42 | 0.00 | 90 | 1014.6 |
| 20260831053055 | 69 | 55 | 0.0 | 0.9 | 0.00 | 0.42 | 0.00 | 90 | 1014.6 |
| 20260831052555 | 69 | 55 | 0.0 | 0.9 | 0.00 | 0.42 | 0.00 | 90 | 1014.7 |
| 20260831052055 | 69 | 55 | 0.0 | 1.7 | 0.00 | 0.42 | 0.00 | 90 | 1014.8 |
| 20260831051555 | 69 | 55 | 0.0 | 1.7 | 0.00 | 0.42 | 0.00 | 90 | 1014.8 |
| 20260831051055 | 69 | 59 | 0.0 | 1.7 | 0.00 | 0.42 | 0.00 | 89 | 1014.8 |
| 20260831050555 | 69 | 34 | 0.0 | 0.0 | 0.00 | 0.42 | 0.00 | 89 | 1014.9 |
| 20260831050059 | 69 | 34 | 0.0 | 1.7 | 0.00 | 0.42 | 0.00 | 89 | 1014.8 |
| 20260831045556 | 69 | 34 | 0.0 | 1.7 | 0.00 | 0.42 | 0.00 | 89 | 1014.8 |
| 20260831045057 | 69 | 162 | 0.0 | 0.0 | 0.00 | 0.42 | 0.00 | 89 | 1014.9 |
| 20260831044556 | 69 | 90 | 0.0 | 0.9 | 0.00 | 0.42 | 0.00 | 89 | 1014.9 |
| 20260831044057 | 69 | 90 | 0.0 | 0.9 | 0.00 | 0.42 | 0.00 | 89 | 1014.8 |
| 20260831043556 | 69 | 90 | 0.0 | 0.9 | 0.00 | 0.42 | 0.00 | 89 | 1014.7 |
| 20260831043057 | 69 | 90 | 0.0 | 1.7 | 0.00 | 0.42 | 0.00 | 89 | 1014.7 |
| 20260831042556 | 69 | 90 | 0.0 | 1.7 | 0.00 | 0.42 | 0.00 | 89 | 1014.6 |
| 20260831042056 | 69 | 97 | 0.0 | 1.7 | 0.00 | 0.42 | 0.00 | 89 | 1014.6 |
| 20260831041556 | 69 | 176 | 0.0 | 0.0 | 0.00 | 0.42 | 0.00 | 88 | 1014.6 |
| 20260831033556 | 70 | 176 | 0.0 | 0.9 | 0.00 | 0.42 | 0.42 | 88 | 1014.5 |
| 20260831033056 | 70 | 180 | 0.0 | 0.0 | 0.00 | 0.42 | 0.42 | 87 | 1014.7 |
| 20260831032556 | 71 | 180 | 0.0 | 0.0 | 0.00 | 0.42 | 0.42 | 87 | 1014.7 |
| 20260831032056 | 71 | 180 | 0.0 | 0.0 | 0.00 | 0.42 | 0.42 | 87 | 1014.8 |
| 20260831031557 | 71 | 180 | 0.0 | 0.0 | 0.00 | 0.42 | 0.42 | 87 | 1014.7 |
| 20260831031057 | 71 | 180 | 0.0 | 0.0 | 0.00 | 0.42 | 0.42 | 86 | 1014.7 |
| 20260831030557 | 71 | 180 | 0.0 | 0.0 | 0.00 | 0.42 | 0.42 | 86 | 1014.7 |
| 20260831030057 | 71 | 180 | 0.0 | 0.0 | 0.00 | 0.42 | 0.42 | 86 | 1014.7 |
| 20260831025557 | 71 | 180 | 0.0 | 0.0 | 0.00 | 0.42 | 0.42 | 86 | 1014.7 |
| 20260831025056 | 71 | 180 | 0.0 | 0.0 | 0.00 | 0.42 | 0.42 | 86 | 1014.6 |
| 20260831024556 | 72 | 180 | 0.0 | 0.0 | 0.00 | 0.42 | 0.42 | 86 | 1014.7 |
| 20260831024056 | 72 | 180 | 0.0 | 0.0 | 0.00 | 0.42 | 0.42 | 86 | 1014.7 |
| 20260831023557 | 72 | 180 | 0.0 | 0.0 | 0.00 | 0.42 | 0.42 | 86 | 1014.7 |
| 20260831023056 | 72 | 180 | 0.0 | 0.0 | 0.00 | 0.42 | 0.42 | 86 | 1014.6 |
| 20260831015057 | 73 | 179 | 0.0 | 2.6 | 0.00 | 0.43 | 0.42 | 84 | 1014.3 |
| 20260831014557 | 73 | 225 | 0.0 | 0.9 | 0.00 | 0.43 | 0.42 | 84 | 1014.3 |
| 20260831014058 | 73 | 223 | 0.0 | 0.9 | 0.00 | 0.43 | 0.42 | 83 | 1014.2 |
| 20260831013558 | 73 | 221 | 0.0 | 0.0 | 0.00 | 0.43 | 0.42 | 83 | 1014.1 |
| 20260831013058 | 73 | 222 | 0.0 | 0.0 | 0.00 | 0.43 | 0.42 | 82 | 1014.0 |
| 20260831012557 | 73 | 221 | 0.0 | 0.0 | 0.00 | 0.43 | 0.42 | 83 | 1014.1 |
| 20260831012058 | 74 | 221 | 0.0 | 0.0 | 0.00 | 0.43 | 0.42 | 83 | 1014.1 |
| 20260831011558 | 74 | 221 | 0.0 | 0.0 | 0.00 | 0.43 | 0.42 | 83 | 1014.0 |
| 20260831011059 | 74 | 222 | 0.0 | 0.9 | 0.00 | 0.43 | 0.42 | 83 | 1013.9 |
| 20260831010558 | 74 | 221 | 0.0 | 0.9 | 0.00 | 0.43 | 0.42 | 82 | 1013.7 |
| 20260831010057 | 74 | 222 | 0.0 | 0.0 | 0.00 | 0.43 | 0.42 | 82 | 1013.7 |
| 20260831005557 | 74 | 223 | 0.0 | 0.9 | 0.00 | 0.43 | 0.42 | 82 | 1013.6 |
| 20260831005056 | 75 | 354 | 0.0 | 1.7 | 0.00 | 0.43 | 0.42 | 82 | 1013.5 |
| 20260831004556 | 75 | 103 | 0.0 | 0.9 | 0.00 | 0.43 | 0.42 | 82 | 1013.5 |
| 20260831004056 | 75 | 201 | 0.0 | 1.7 | 0.00 | 0.43 | 0.42 | 81 | 1013.5 |
| 20260831003556 | 75 | 201 | 0.9 | 1.7 | 0.00 | 0.43 | 0.42 | 81 | 1013.5 |
| 20260831003056 | 75 | 215 | 0.0 | 2.6 | 0.00 | 0.43 | 0.42 | 81 | 1013.5 |
| 20260831002556 | 75 | 305 | 0.9 | 2.6 | 0.00 | 0.43 | 0.42 | 81 | 1013.6 |
| 20260831002056 | 75 | 182 | 0.9 | 1.7 | 0.00 | 0.43 | 0.42 | 80 | 1013.6 |
| 20260831001557 | 76 | 180 | 0.0 | 4.3 | 0.00 | 0.43 | 0.42 | 80 | 1013.6 |
| 20260831001056 | 76 | 244 | 0.0 | 4.3 | 0.00 | 0.43 | 0.42 | 80 | 1013.6 |
| 20260831000557 | 76 | 345 | 0.9 | 3.5 | 0.00 | 0.43 | 0.42 | 80 | 1013.6 |
| 20260831000059 | 76 | 296 | 1.7 | 4.3 | 0.00 | 0.43 | 0.42 | 80 | 1013.5 |
| 20260830235557 | 76 | 222 | 1.7 | 3.5 | 0.00 | 0.43 | 0.42 | 80 | 1013.6 |
| 20260830235057 | 76 | 228 | 2.6 | 3.5 | 0.00 | 0.43 | 0.42 | 80 | 1013.4 |
| 20260830234558 | 76 | 194 | 1.7 | 4.3 | 0.00 | 0.43 | 0.42 | 80 | 1013.4 |
| 20260830234057 | 76 | 220 | 0.9 | 2.6 | 0.00 | 0.43 | 0.42 | 80 | 1013.4 |
| 20260830233558 | 76 | 203 | 0.9 | 4.3 | 0.00 | 0.43 | 0.42 | 80 | 1013.4 |
| 20260830233057 | 76 | 282 | 0.9 | 6.1 | 0.00 | 0.43 | 0.42 | 79 | 1013.3 |
| 20260830232557 | 76 | 259 | 2.6 | 6.1 | 0.00 | 0.43 | 0.42 | 79 | 1013.2 |
| 20260830232057 | 76 | 334 | 0.9 | 4.3 | 0.00 | 0.43 | 0.42 | 79 | 1013.2 |
| 20260830231558 | 76 | 100 | 0.9 | 4.3 | 0.00 | 0.43 | 0.42 | 78 | 1013.2 |
| 20260830231057 | 77 | 319 | 1.7 | 9.6 | 0.00 | 0.43 | 0.42 | 78 | 1013.2 |
| 20260830230557 | 77 | 253 | 2.6 | 9.6 | 0.00 | 0.43 | 0.42 | 78 | 1013.2 |
| 20260830230057 | 77 | 259 | 1.7 | 8.7 | 0.00 | 0.43 | 0.42 | 77 | 1013.2 |
| 20260830225556 | 77 | 266 | 2.6 | 8.7 | 0.00 | 0.43 | 0.42 | 76 | 1013.2 |
| 20260830225056 | 77 | 205 | 3.5 | 8.7 | 0.00 | 0.43 | 0.42 | 76 | 1013.3 |
| 20260830224556 | 78 | 254 | 3.5 | 8.7 | 0.00 | 0.43 | 0.42 | 75 | 1013.3 |
| 20260830224056 | 78 | 219 | 2.6 | 7.8 | 0.00 | 0.43 | 0.42 | 75 | 1013.3 |
| 20260830223556 | 78 | 190 | 1.7 | 7.8 | 0.00 | 0.43 | 0.42 | 75 | 1013.3 |
| 20260830223057 | 78 | 237 | 3.5 | 8.7 | 0.00 | 0.43 | 0.42 | 74 | 1013.2 |
| 20260830222556 | 78 | 255 | 2.6 | 8.7 | 0.00 | 0.43 | 0.42 | 74 | 1013.2 |
| 20260830222056 | 79 | 222 | 3.5 | 7.0 | 0.00 | 0.43 | 0.42 | 73 | 1013.3 |
| 20260830221556 | 79 | 352 | 0.9 | 5.2 | 0.00 | 0.43 | 0.42 | 73 | 1013.3 |
| 20260830221056 | 79 | 276 | 2.6 | 10.4 | 0.00 | 0.43 | 0.42 | 72 | 1013.3 |
| 20260830220556 | 79 | 192 | 3.5 | 10.4 | 0.00 | 0.43 | 0.42 | 71 | 1013.3 |
| 20260830220056 | 79 | 293 | 4.3 | 10.4 | 0.00 | 0.43 | 0.42 | 71 | 1013.4 |
| 20260830215556 | 79 | 345 | 4.3 | 11.3 | 0.00 | 0.43 | 0.42 | 71 | 1013.3 |
| 20260830215056 | 79 | 217 | 1.7 | 11.3 | 0.00 | 0.43 | 0.42 | 72 | 1013.4 |
| 20260830214556 | 80 | 188 | 2.6 | 7.8 | 0.00 | 0.43 | 0.42 | 70 | 1013.5 |
| 20260830214056 | 80 | 231 | 3.5 | 9.6 | 0.00 | 0.43 | 0.42 | 69 | 1013.5 |
| 20260830213556 | 81 | 197 | 2.6 | 9.6 | 0.00 | 0.43 | 0.42 | 68 | 1013.4 |
| 20260830213056 | 82 | 305 | 1.7 | 8.7 | 0.00 | 0.43 | 0.42 | 70 | 1013.5 |
| 20260830212556 | 82 | 236 | 2.6 | 9.6 | 0.00 | 0.43 | 0.42 | 68 | 1013.4 |
| 20260830212031 | 82 | 313 | 2.6 | 11.3 | 0.00 | 0.43 | 0.42 | 67 | 1013.4 |
| 20260830211531 | 82 | 220 | 1.7 | 10.4 | 0.00 | 0.43 | 0.42 | 69 | 1013.5 |
| 20260830211031 | 82 | 281 | 1.7 | 7.8 | 0.00 | 0.43 | 0.42 | 70 | 1013.5 |
| 20260830210531 | 82 | 11 | 1.7 | 7.8 | 0.00 | 0.43 | 0.42 | 71 | 1013.6 |
| 20260830210032 | 81 | 191 | 0.9 | 7.0 | 0.00 | 0.43 | 0.42 | 73 | 1013.7 |
| 20260830205531 | 81 | 232 | 2.6 | 7.8 | 0.00 | 0.43 | 0.42 | 71 | 1013.7 |
| 20260830205032 | 82 | 201 | 1.7 | 7.8 | 0.00 | 0.43 | 0.42 | 70 | 1013.7 |
| 20260830204532 | 82 | 182 | 3.5 | 7.8 | 0.00 | 0.43 | 0.42 | 69 | 1013.8 |
| 20260830204032 | 83 | 175 | 1.7 | 8.7 | 0.00 | 0.43 | 0.42 | 70 | 1013.7 |
| 20260830203533 | 83 | 214 | 3.5 | 8.7 | 0.00 | 0.43 | 0.42 | 70 | 1013.6 |
| 20260830203032 | 83 | 353 | 3.5 | 8.7 | 0.00 | 0.43 | 0.42 | 71 | 1013.6 |
| 20260830202532 | 83 | 224 | 2.6 | 7.8 | 0.00 | 0.43 | 0.42 | 70 | 1013.7 |
| 20260830202032 | 83 | 230 | 2.6 | 9.6 | 0.00 | 0.43 | 0.42 | 71 | 1013.7 |
| 20260830201532 | 83 | 237 | 3.5 | 9.6 | 0.00 | 0.43 | 0.42 | 70 | 1013.9 |
| 20260830201032 | 83 | 211 | 1.7 | 11.3 | 0.00 | 0.43 | 0.42 | 73 | 1013.9 |
| 20260830200532 | 83 | 195 | 4.3 | 7.8 | 0.00 | 0.43 | 0.42 | 70 | 1013.9 |
| 20260830200033 | 82 | 271 | 4.3 | 8.7 | 0.00 | 0.43 | 0.42 | 71 | 1014.0 |
| 20260830195532 | 82 | 259 | 3.5 | 11.3 | 0.00 | 0.43 | 0.42 | 71 | 1014.0 |
| 20260830195032 | 82 | 313 | 3.5 | 9.6 | 0.00 | 0.43 | 0.42 | 71 | 1014.1 |
| 20260830194532 | 82 | 232 | 4.3 | 7.0 | 0.00 | 0.43 | 0.42 | 71 | 1014.1 |
| 20260830194032 | 82 | 18 | 2.6 | 10.4 | 0.00 | 0.43 | 0.42 | 73 | 1014.1 |
| 20260830193532 | 82 | 196 | 3.5 | 10.4 | 0.00 | 0.43 | 0.42 | 72 | 1013.9 |
| 20260830193032 | 82 | 143 | 3.5 | 11.3 | 0.00 | 0.43 | 0.42 | 73 | 1013.8 |
| 20260830192532 | 82 | 124 | 3.5 | 10.4 | 0.00 | 0.43 | 0.42 | 72 | 1013.7 |
| 20260830192032 | 82 | 189 | 2.6 | 10.4 | 0.00 | 0.43 | 0.42 | 72 | 1013.7 |
| 20260830191532 | 82 | 171 | 4.3 | 10.4 | 0.00 | 0.43 | 0.42 | 71 | 1013.7 |
| 20260830191031 | 82 | 176 | 4.3 | 9.6 | 0.00 | 0.43 | 0.42 | 72 | 1013.8 |
| 20260830190532 | 81 | 225 | 3.5 | 7.0 | 0.00 | 0.43 | 0.42 | 74 | 1013.8 |
| 20260830190034 | 81 | 221 | 3.5 | 9.6 | 0.00 | 0.43 | 0.42 | 73 | 1013.8 |
| 20260830185532 | 80 | 122 | 4.3 | 9.6 | 0.00 | 0.43 | 0.42 | 73 | 1013.6 |
| 20260830185033 | 80 | 179 | 4.3 | 8.7 | 0.00 | 0.43 | 0.42 | 73 | 1013.6 |
| 20260830184532 | 80 | 253 | 4.3 | 9.6 | 0.00 | 0.43 | 0.42 | 73 | 1013.5 |
| 20260830184032 | 80 | 132 | 2.6 | 9.6 | 0.00 | 0.43 | 0.42 | 74 | 1013.6 |
| 20260830183532 | 80 | 195 | 4.3 | 9.6 | 0.00 | 0.43 | 0.42 | 73 | 1013.5 |
| 20260830183031 | 80 | 201 | 4.3 | 8.7 | 0.00 | 0.43 | 0.42 | 75 | 1013.7 |
| 20260830182532 | 80 | 312 | 2.6 | 8.7 | 0.00 | 0.43 | 0.42 | 74 | 1013.6 |
| 20260830182032 | 80 | 203 | 2.6 | 10.4 | 0.00 | 0.43 | 0.42 | 77 | 1013.7 |
| 20260830181532 | 80 | 151 | 3.5 | 8.7 | 0.00 | 0.43 | 0.42 | 74 | 1013.6 |
| 20260830181032 | 80 | 249 | 1.7 | 10.4 | 0.00 | 0.43 | 0.42 | 80 | 1013.7 |
| 20260830180532 | 80 | 151 | 2.6 | 8.7 | 0.00 | 0.43 | 0.42 | 77 | 1013.7 |
| 20260830180032 | 80 | 232 | 3.5 | 7.0 | 0.00 | 0.43 | 0.42 | 77 | 1013.6 |
| 20260830175531 | 80 | 220 | 1.7 | 7.0 | 0.00 | 0.43 | 0.42 | 80 | 1013.6 |
| 20260830175032 | 79 | 116 | 1.7 | 8.7 | 0.00 | 0.43 | 0.42 | 78 | 1013.6 |
| 20260830174532 | 79 | 161 | 2.6 | 9.6 | 0.00 | 0.43 | 0.42 | 80 | 1013.8 |
| 20260830174031 | 78 | 215 | 2.6 | 8.7 | 0.00 | 0.43 | 0.42 | 79 | 1013.8 |
| 20260830173531 | 78 | 195 | 4.3 | 8.7 | 0.00 | 0.43 | 0.42 | 79 | 1013.8 |
| 20260830173032 | 78 | 271 | 3.5 | 7.8 | 0.00 | 0.43 | 0.42 | 81 | 1013.8 |
| 20260830172531 | 78 | 276 | 3.5 | 7.8 | 0.00 | 0.43 | 0.42 | 80 | 1013.8 |
| 20260830172032 | 78 | 205 | 1.7 | 4.3 | 0.00 | 0.43 | 0.42 | 81 | 1013.9 |
| 20260830171530 | 77 | 232 | 1.7 | 8.7 | 0.00 | 0.43 | 0.42 | 81 | 1014.0 |
| 20260830171031 | 77 | 169 | 2.6 | 10.4 | 0.00 | 0.43 | 0.42 | 81 | 1014.0 |
| 20260830170532 | 77 | 276 | 2.6 | 8.7 | 0.00 | 0.43 | 0.42 | 83 | 1014.3 |
| 20260830170031 | 76 | 257 | 4.3 | 8.7 | 0.00 | 0.43 | 0.42 | 84 | 1014.3 |
| 20260830165531 | 76 | 189 | 4.3 | 8.7 | 0.00 | 0.43 | 0.42 | 82 | 1014.4 |
| 20260830165031 | 76 | 360 | 1.7 | 7.0 | 0.00 | 0.43 | 0.42 | 85 | 1014.5 |
| 20260830164531 | 75 | 192 | 2.6 | 8.7 | 0.00 | 0.43 | 0.42 | 85 | 1014.4 |
| 20260830164032 | 74 | 221 | 4.3 | 8.7 | 0.00 | 0.43 | 0.42 | 84 | 1014.5 |
| 20260830163531 | 74 | 205 | 3.5 | 8.7 | 0.00 | 0.43 | 0.42 | 84 | 1014.6 |
| 20260830163031 | 74 | 209 | 3.5 | 7.8 | 0.00 | 0.43 | 0.42 | 85 | 1014.6 |
| 20260830162531 | 74 | 224 | 3.5 | 8.7 | 0.00 | 0.43 | 0.42 | 86 | 1014.4 |
| 20260830162031 | 73 | 118 | 3.5 | 8.7 | 0.00 | 0.43 | 0.42 | 87 | 1014.6 |
| 20260830161531 | 72 | 207 | 3.5 | 8.7 | 0.00 | 0.43 | 0.42 | 88 | 1014.6 |
| 20260830161030 | 72 | 192 | 1.7 | 5.2 | 0.00 | 0.43 | 0.42 | 88 | 1014.6 |
| 20260830160530 | 71 | 238 | 1.7 | 8.7 | 0.00 | 0.43 | 0.42 | 88 | 1014.6 |
| 20260830160031 | 71 | 181 | 2.6 | 9.6 | 0.00 | 0.43 | 0.42 | 88 | 1014.6 |
| 20260830155532 | 71 | 21 | 3.5 | 9.6 | 0.00 | 0.43 | 0.42 | 88 | 1014.6 |
| 20260830155031 | 70 | 169 | 1.7 | 8.7 | 0.00 | 0.43 | 0.42 | 89 | 1014.6 |
| 20260830154531 | 70 | 228 | 2.6 | 7.8 | 0.00 | 0.43 | 0.42 | 89 | 1014.9 |
| 20260830140034 | 66 | 220 | 2.6 | 7.8 | 0.00 | 0.43 | 0.42 | 91 | 1015.2 |
| 20260830135532 | 66 | 246 | 2.6 | 8.7 | 0.01 | 0.43 | 0.42 | 91 | 1015.4 |
| 20260830135032 | 66 | 153 | 3.5 | 8.7 | 0.02 | 0.43 | 0.42 | 91 | 1015.5 |
| 20260830134532 | 66 | 176 | 2.6 | 7.8 | 0.02 | 0.43 | 0.42 | 91 | 1015.3 |
| 20260830134032 | 66 | 165 | 3.5 | 9.6 | 0.02 | 0.43 | 0.42 | 91 | 1015.5 |
| 20260830133532 | 66 | 235 | 2.6 | 9.6 | 0.02 | 0.43 | 0.42 | 91 | 1015.5 |